Location: Antioch Baptist Church
(32.6696°N, 85.7327°W)
Time: 21:20:01
(UTC+00:00)

Lacrosse 5 - Pass Details

Date: 14 July 2020
Orbit: 717 x 720 km, 57.0° (Epoch: 11 August)

Event Time Altitude Azimuth Distance (km) Brightness Sun altitude
Exits shadow 05:08:05 21° 32° (NNE) 1,592 4.0 -34.9°
Drops below altitude 10° 05:09:43 10° 35° (NE) 2,200 4.8 -34.9°
Sets 05:12:07 0° 37° (NE) 3,122 5.7 -35.0°
